This is the latest recevied weather packets stored in our database for station/object MEGLR. If no packets are shown the sender has not sent any weather packets the latest 10 day(s).
| Time | Temp. | Humidity | Pressure | Rain* | Wind** | Luminosity | Snow |
|---|---|---|---|---|---|---|---|
| 1788204003 | 18.33° C | 66% | 0 hPa | - | - | - | - |
| 1788203403 | 17.78° C | 69% | 0 hPa | - | - | - | - |
| 1788202804 | 18.89° C | 66% | 0 hPa | - | - | - | - |
| 1788202202 | 19.44° C | 65% | 0 hPa | - | - | - | - |
| 1788201602 | 17.78° C | 69% | 0 hPa | - | - | - | - |
| 1788201003 | 18.89° C | 60% | 0 hPa | - | - | - | - |
| 1788200403 | 18.89° C | 64% | 0 hPa | - | - | - | - |
| 1788199803 | 18.89° C | 62% | 0 hPa | - | - | - | - |
| 1788198603 | 18.33° C | 61% | 0 hPa | - | - | - | - |
| 1788198002 | 17.78° C | 65% | 0 hPa | - | - | - | - |
| 1788197403 | 16.67° C | 66% | 0 hPa | - | - | - | - |
| 1788196803 | 16.67° C | 80% | 0 hPa | - | - | - | - |
| 1788196203 | 16.67° C | 85% | 0 hPa | - | - | - | - |
| 1788195604 | 16.11° C | 85% | 0 hPa | - | - | - | - |
| 1788195003 | 16.67° C | 82% | 0 hPa | - | - | - | - |
| 1788193805 | 15.56° C | 85% | 0 hPa | - | - | - | - |
| 1788193203 | 15.56° C | 87% | 0 hPa | - | - | - | - |
| 1788192603 | 15.56° C | 83% | 0 hPa | - | - | - | - |
| 1788192014 | 15.56° C | 87% | 0 hPa | - | - | - | - |
| 1788191403 | 15.56° C | 88% | 0 hPa | - | - | - | - |
| 1788190803 | 15.56° C | 86% | 0 hPa | - | - | - | - |
| 1788190204 | 15.56° C | 80% | 0 hPa | - | - | - | - |
| 1788189603 | 15.56° C | 80% | 0 hPa | - | - | - | - |
| 1788189003 | 15.56° C | 82% | 0 hPa | - | - | - | - |
| 1788188403 | 15° C | 84% | 0 hPa | - | - | - | - |
* Rain since midnight (hover to see other rain measurements)
** Current wind speed in m/s (hover to see current wind gust speed)